Location: Domicella
(40.8833°N, 14.5833°E)
Time: 11:19:24
(UTC+00:00)

ISS - Pass Details

Date: 15 May 2026
Orbit: 413 x 422 km, 51.6° (Epoch: 7 June)

Event Time Altitude Azimuth Distance (km) Brightness Sun altitude
Rises 19:46:37 0° 297° (WNW) 2,348 1.6 -15.4°
Reaches altitude 10° 19:49:35 10° 326° (NW) 1,487 0.3 -15.8°
Maximum altitude 19:51:16 13° 356° (N) 1,307 -0.6 -16.1°
Drops below altitude 10° 19:52:58 10° 27° (NNE) 1,489 -0.8 -16.3°
Sets 19:55:57 0° 56° (NE) 2,354 -0.1 -16.7°
Enters shadow 19:56:07 -1° 57° (ENE) 2,412 0.0 -16.7°
